Temp
21 22 23 23 23 23 23 23 23 22 21 22 22 21 20 18 19 18 18 17 16 15 13 13 15 15 15 14 13 12 12 12 11 11 11 11 11 11 11 10 10 9 9 8
22 22 21 21 22 23 23 22 22 20 20 21 21 20 19 18 19 18 18 17 16 14 13 12 12 11 11 11 11 11 11 12 12 11 11 10 11 10 10 10 9 9 8 7
22 21 20 22 22 22 21 22 21 22 20 20 21 20 19 16 16 15 15 16 16 15 14 12 12 12 11 11 11 11 11 12 11 11 11 11 11 10 10 9 9 8 7 6
21 20 21 22 21 22 21 20 21 21 21 22 21 22 21 18 17 16 15 15 15 14 13 13 12 12 12 12 12 12 11 11 12 11 10 10 11 10 9 8 7 6 7 6
20 21 21 21 20 20 20 20 21 21 22 22 21 21 22 18 18 17 16 15 14 14 13 13 13 13 12 12 11 12 12 10 11 11 10 9 9 8 8 7 6 6 5 5
20 19 21 20 19 20 19 20 20 21 21 20 21 20 23 22 21 18 16 15 14 13 13 13 13 12 11 12 12 10 10 11 10 9 10 9 8 7 7 6 6 6 5 4
20 20 20 19 20 19 20 21 20 18 19 19 18 19 22 20 18 19 17 15 14 13 13 13 12 12 11 10 9 10 9 9 9 9 9 8 7 6 6 6 6 5 5 4
20 19 20 19 20 21 20 21 19 17 18 19 18 19 21 18 17 17 16 15 14 14 13 13 13 12 11 10 10 10 9 9 9 8 7 7 6 6 6 5 4 4 3 3
20 19 19 18 19 20 19 19 18 17 13 16 20 20 20 17 17 17 17 16 15 14 14 13 12 11 11 10 9 9 9 8 8 8 7 7 6 6 5 4 4 3 2 2
19 18 19 18 19 18 20 19 18 18 16 17 20 19 21 18 17 17 17 16 15 14 14 13 12 11 10 9 8 9 8 8 8 7 6 6 5 5 4 4 2 2 1 1
20 20 18 18 19 20 18 18 18 18 17 17 18 20 19 18 18 18 17 16 16 15 13 12 11 9 9 8 8 8 8 7 7 6 5 5 4 4 3 2 2 1 0 0
17 19 18 19 18 18 19 19 19 18 17 15 16 19 18 18 17 17 17 16 16 14 12 11 10 9 8 8 7 7 7 6 6 5 4 3 4 3 2 2 1 0 -0 -1
18 18 17 17 18 17 18 18 18 16 16 16 15 19 17 17 16 16 16 16 14 12 11 10 9 9 8 8 6 6 6 6 5 4 4 3 3 2 2 1 0 -1 -1 -2
16 17 19 18 19 19 17 17 17 18 16 18 17 20 18 18 17 16 16 15 12 11 10 9 9 8 8 7 6 6 6 5 4 4 4 3 2 1 1 -0 -1 -2 -2 -2
17 17 17 16 15 16 17 17 17 17 18 16 19 19 20 19 19 17 15 14 12 11 10 10 9 8 7 6 5 6 4 4 4 3 3 2 1 0 -0 -1 -2 -2 -3 -3
15 16 14 15 13 14 15 16 17 17 18 18 18 18 20 18 15 15 13 12 11 11 10 9 8 7 7 5 5 4 4 3 4 3 2 1 0 -0 -1 -2 -2 -3 -3 -4
15 14 14 15 12 13 12 15 17 17 17 17 17 19 18 16 15 14 13 12 11 10 9 8 7 6 5 5 4 4 3 4 3 2 1 -0 -0 -1 -2 -2 -3 -3 -4 -4
13 13 11 13 9 12 18 15 16 17 18 18 17 17 16 16 14 13 13 12 10 9 9 7 6 5 5 4 4 4 3 3 2 1 -0 -1 -1 -2 -2 -3 -4 -4 -4 -5
13 13 9 11 14 16 18 15 14 14 17 17 17 17 14 11 11 12 10 10 10 9 8 7 5 5 4 4 3 3 3 2 0 -0 -1 -1 -2 -3 -3 -4 -4 -4 -6 -6
11 12 14 9 12 13 16 14 12 14 15 15 14 14 13 11 13 16 11 9 9 7 7 5 4 4 3 3 3 3 1 0 -0 -1 -1 -2 -3 -3 -4 -4 -5 -5 -6 -6
9 8 10 10 11 14 15 13 12 14 15 13 13 14 12 13 13 10 10 8 7 6 5 4 3 3 3 2 2 1 0 -0 -1 -1 -1 -3 -3 -4 -4 -5 -5 -6 -6 -6
12 11 9 8 10 11 12 12 13 14 13 12 12 12 11 11 8 8 7 6 5 4 3 2 2 2 2 2 2 0 -1 -1 -1 -1 -3 -3 -4 -4 -5 -5 -5 -6 -6 -6
13 14 14 14 15 13 12 13 12 11 11 11 11 11 9 9 7 6 5 5 4 3 2 1 1 2 2 2 1 0 -1 -1 -1 -2 -2 -4 -4 -5 -5 -6 -6 -6 -7 -7
12 10 12 11 15 13 12 11 11 11 10 10 9 9 9 9 7 5 4 3 1 1 1 -1 -0 1 1 1 -0 -1 -1 -1 -2 -2 -4 -5 -5 -5 -5 -6 -7 -7 -7 -7
12 11 12 12 13 13 11 10 8 9 9 8 7 7 7 7 5 3 2 1 -0 -0 -1 0 0 1 0 -0 -1 -1 -2 -2 -2 -4 -4 -5 -5 -5 -6 -6 -6 -7 -7 -7
10 11 11 12 10 10 10 8 6 7 7 6 5 5 4 4 2 1 -1 -1 -2 -1 -1 0 1 -0 -0 -1 -1 -2 -2 -2 -3 -3 -5 -5 -6 -6 -6 -6 -6 -7 -7 -8
Height
1501 1496 1494 1491 1494 1493 1493 1497 1502 1506 1513 1510 1512 1517 1522 1527 1528 1531 1535 1538 1541 1544 1546 1545 1547 1550 1550 1551 1554 1557 1560 1563 1564 1568 1569 1570 1572 1573 1574 1574 1574 1574 1573 1571
1496 1495 1499 1499 1498 1496 1497 1500 1504 1512 1514 1511 1514 1518 1523 1526 1527 1529 1532 1536 1539 1541 1543 1543 1545 1548 1549 1551 1554 1557 1560 1562 1565 1567 1568 1570 1571 1573 1574 1574 1574 1572 1571 1570
1491 1500 1502 1498 1498 1499 1502 1501 1507 1505 1513 1513 1512 1517 1521 1528 1529 1530 1533 1535 1537 1540 1541 1543 1546 1548 1549 1551 1555 1558 1560 1562 1564 1566 1568 1570 1571 1572 1573 1572 1571 1569 1568 1568
1497 1501 1500 1498 1502 1500 1504 1505 1505 1508 1507 1506 1511 1507 1510 1519 1524 1528 1531 1534 1536 1538 1541 1544 1546 1549 1551 1552 1555 1559 1560 1563 1564 1565 1568 1570 1573 1572 1571 1570 1569 1568 1567 1565
1502 1501 1501 1500 1505 1505 1508 1507 1506 1507 1505 1506 1508 1511 1501 1515 1518 1522 1527 1531 1535 1538 1541 1543 1547 1549 1551 1553 1555 1558 1560 1563 1563 1565 1567 1568 1569 1569 1567 1567 1566 1565 1563 1561
1501 1504 1503 1504 1507 1506 1510 1507 1507 1507 1507 1515 1502 1510 1494 1497 1505 1515 1525 1529 1533 1537 1541 1544 1547 1549 1551 1552 1554 1557 1559 1559 1562 1564 1564 1565 1565 1566 1566 1566 1565 1564 1562 1560
1502 1504 1506 1507 1506 1510 1506 1505 1515 1523 1521 1518 1514 1515 1498 1502 1509 1511 1519 1525 1531 1536 1540 1543 1545 1548 1551 1552 1554 1556 1560 1560 1560 1562 1562 1562 1562 1563 1563 1562 1561 1559 1558 1556
1500 1513 1504 1506 1504 1501 1505 1505 1515 1529 1523 1514 1516 1509 1496 1507 1511 1512 1517 1524 1530 1534 1538 1541 1544 1547 1549 1551 1554 1555 1558 1557 1558 1559 1559 1559 1560 1560 1559 1558 1555 1554 1552 1550
1500 1505 1506 1508 1506 1507 1509 1510 1513 1521 1538 1526 1503 1500 1501 1508 1510 1513 1516 1521 1527 1531 1535 1539 1542 1544 1547 1549 1550 1552 1553 1554 1555 1556 1556 1556 1556 1555 1554 1552 1550 1549 1547 1545
1496 1508 1505 1508 1508 1510 1506 1510 1518 1516 1532 1526 1502 1505 1496 1504 1507 1511 1514 1519 1524 1529 1533 1536 1539 1542 1544 1546 1547 1549 1551 1551 1552 1553 1553 1553 1553 1551 1550 1548 1546 1544 1543 1540
1493 1496 1510 1508 1505 1502 1513 1511 1514 1511 1518 1519 1518 1497 1498 1501 1503 1508 1511 1517 1521 1525 1529 1533 1536 1539 1541 1542 1544 1545 1547 1549 1550 1551 1551 1550 1548 1547 1545 1545 1542 1540 1537 1534
1498 1497 1506 1502 1507 1507 1504 1503 1505 1512 1519 1524 1522 1504 1500 1503 1505 1507 1509 1515 1518 1523 1527 1530 1533 1535 1537 1539 1541 1542 1544 1545 1547 1547 1545 1545 1544 1543 1542 1540 1537 1534 1532 1529
1497 1500 1507 1508 1507 1507 1505 1503 1504 1512 1514 1517 1523 1501 1500 1502 1505 1506 1508 1512 1517 1521 1525 1527 1529 1532 1534 1536 1537 1539 1540 1541 1541 1542 1543 1542 1540 1539 1537 1535 1532 1530 1526 1523
1498 1497 1495 1499 1493 1494 1503 1502 1504 1503 1514 1504 1503 1493 1496 1499 1500 1503 1505 1508 1513 1517 1520 1523 1526 1529 1530 1532 1533 1535 1537 1536 1538 1539 1539 1538 1535 1533 1531 1529 1527 1524 1520 1516
1497 1497 1499 1502 1503 1502 1499 1499 1502 1502 1498 1506 1490 1491 1486 1490 1495 1497 1501 1505 1510 1513 1516 1519 1522 1525 1527 1529 1530 1532 1533 1534 1534 1535 1534 1532 1530 1528 1527 1525 1522 1519 1515 1511
1498 1499 1503 1505 1508 1507 1506 1499 1498 1497 1494 1493 1490 1487 1486 1491 1496 1496 1498 1502 1505 1508 1512 1515 1519 1521 1524 1525 1527 1528 1530 1531 1531 1530 1529 1528 1526 1524 1522 1519 1516 1513 1510 1507
1497 1500 1504 1504 1511 1510 1513 1494 1490 1488 1488 1490 1491 1483 1486 1491 1493 1493 1496 1498 1500 1504 1508 1511 1515 1517 1520 1523 1524 1527 1528 1528 1527 1526 1525 1523 1522 1520 1518 1515 1511 1508 1505 1501
1499 1500 1510 1509 1520 1515 1482 1488 1488 1485 1482 1483 1485 1485 1489 1489 1491 1492 1493 1495 1498 1502 1506 1509 1511 1513 1516 1519 1521 1523 1525 1524 1523 1521 1520 1518 1517 1514 1512 1509 1506 1503 1500 1495
1498 1501 1515 1513 1505 1491 1480 1488 1490 1490 1482 1481 1481 1482 1489 1491 1492 1489 1490 1493 1496 1500 1504 1507 1509 1512 1515 1516 1519 1519 1519 1518 1518 1517 1515 1514 1512 1509 1506 1504 1501 1497 1494 1491
1502 1502 1500 1516 1508 1504 1485 1490 1491 1491 1487 1483 1483 1484 1488 1491 1488 1482 1487 1491 1495 1499 1502 1504 1505 1508 1511 1515 1518 1516 1516 1515 1514 1512 1510 1508 1507 1503 1500 1498 1495 1491 1489 1486
1505 1509 1507 1509 1506 1493 1485 1490 1492 1492 1491 1486 1486 1485 1488 1488 1488 1487 1488 1491 1494 1496 1498 1500 1503 1506 1509 1511 1513 1512 1512 1510 1509 1506 1504 1503 1501 1497 1495 1493 1490 1487 1485 1482
1492 1499 1505 1511 1508 1502 1488 1491 1491 1487 1486 1487 1487 1487 1487 1488 1486 1485 1487 1490 1493 1495 1498 1502 1502 1505 1507 1506 1507 1508 1507 1506 1503 1500 1498 1496 1494 1492 1490 1488 1485 1482 1479 1477
1491 1486 1486 1489 1483 1485 1487 1486 1487 1487 1487 1487 1487 1486 1485 1486 1486 1486 1486 1488 1491 1493 1494 1497 1506 1506 1505 1503 1503 1503 1502 1500 1498 1495 1493 1490 1488 1487 1484 1481 1478 1477 1475 1473
1486 1490 1488 1489 1481 1483 1485 1486 1486 1486 1484 1484 1484 1483 1483 1483 1483 1485 1487 1489 1490 1494 1499 1502 1502 1504 1503 1501 1500 1499 1497 1495 1493 1491 1488 1486 1484 1482 1479 1477 1473 1471 1471 1469
1483 1488 1485 1485 1481 1482 1484 1485 1484 1483 1482 1480 1480 1479 1479 1480 1483 1486 1488 1492 1493 1495 1496 1500 1502 1502 1499 1498 1496 1495 1493 1491 1489 1486 1484 1482 1479 1476 1474 1471 1469 1467 1465 1464
1485 1484 1484 1480 1486 1486 1485 1485 1483 1482 1481 1479 1479 1479 1479 1482 1484 1486 1488 1492 1496 1498 1500 1501 1500 1499 1497 1495 1493 1491 1489 1486 1484 1481 1480 1477 1473 1470 1468 1466 1463 1462 1459 1457
Wind_Speed
9 7 6 13 4 4 4 6 12 8 4 7 6 6 5 7 12 13 14 13 13 10 7 7 9 11 15 16 15 14 10 11 7 12 8 11 6 5 2 3 5 6 6 7
6 3 5 5 4 3 5 7 7 5 4 5 9 6 4 6 9 12 13 12 12 10 9 8 7 9 11 14 14 10 9 11 15 14 12 9 10 6 4 5 5 6 7 8
5 6 5 7 8 7 4 3 10 5 7 2 9 8 8 4 7 8 10 10 10 11 12 12 13 12 15 16 17 17 18 20 17 14 12 10 8 5 4 7 8 9 8 9
4 3 4 6 6 3 5 2 5 11 10 7 8 7 10 9 8 10 11 12 14 15 14 15 17 18 20 20 20 20 19 16 15 14 10 8 5 4 7 7 6 5 11 14
4 5 5 4 3 1 4 4 4 3 4 5 9 7 8 9 10 12 14 16 17 16 16 20 20 20 20 22 19 18 16 13 14 12 9 6 5 5 8 6 6 8 10 15
5 3 2 3 6 2 10 8 6 2 3 8 4 6 9 7 7 13 17 19 19 16 19 20 19 18 18 20 18 15 13 15 12 8 7 6 6 3 3 4 6 9 11 12
6 3 4 3 9 6 6 6 3 3 4 6 3 6 11 2 3 10 19 22 20 18 22 21 19 17 16 14 13 13 10 9 8 7 6 5 3 2 3 6 9 11 14 15
9 7 5 1 3 2 2 3 3 4 3 1 3 5 2 2 2 7 20 23 21 20 21 21 18 16 15 13 11 10 10 8 8 5 5 4 2 4 6 8 11 13 14 15
6 4 4 3 2 3 5 4 3 2 1 3 3 4 8 2 3 10 19 22 23 23 22 20 18 16 14 13 10 11 10 8 6 6 7 7 8 9 9 13 14 11 12 13
4 4 2 5 2 7 4 9 3 3 3 4 3 5 2 4 7 10 18 23 24 22 20 19 18 16 14 12 11 13 9 9 7 7 7 8 11 12 13 14 9 9 12 16
5 3 6 4 7 6 4 4 1 0 2 2 3 2 3 1 5 11 18 22 24 22 20 19 16 14 13 12 11 11 11 8 6 8 9 12 8 11 12 7 9 11 15 17
2 1 4 5 3 1 2 5 8 4 4 1 2 3 4 2 2 9 15 20 22 21 19 18 16 16 15 13 12 12 11 5 7 9 7 5 10 11 7 8 10 14 16 17
6 3 4 4 4 4 7 9 5 4 1 6 3 3 4 4 5 9 13 18 20 20 19 18 17 17 16 15 13 13 6 7 7 5 5 7 8 7 8 10 13 15 17 19
4 3 7 10 2 0 6 11 11 11 4 5 10 12 8 8 8 8 15 19 22 22 20 19 18 17 16 14 14 10 10 4 6 5 7 8 8 9 10 12 15 17 18 19
3 6 4 2 0 3 4 8 13 15 14 8 11 11 11 5 9 11 13 17 20 21 21 20 19 17 15 14 14 7 7 6 6 7 9 10 10 12 11 14 16 18 18 17
2 3 3 3 2 2 7 8 10 15 16 15 19 20 15 10 9 10 14 18 22 22 22 20 18 16 15 14 10 9 7 5 10 11 10 9 10 11 13 15 17 17 16 16
4 5 4 2 2 3 6 15 18 13 12 15 14 16 3 6 10 12 15 19 22 22 21 19 17 15 14 12 10 6 5 10 12 11 9 9 13 12 14 16 16 15 15 15
6 5 1 1 2 3 1 1 3 12 16 15 17 10 7 4 5 7 13 17 19 20 20 18 16 17 16 12 8 8 9 12 13 9 9 10 11 13 15 15 15 15 15 14
1 4 3 2 4 6 12 3 3 3 6 4 12 8 5 3 4 10 11 15 18 19 18 16 15 15 14 9 10 8 12 11 11 9 10 11 13 15 14 14 15 14 16 14
5 3 2 3 3 4 3 4 1 2 5 3 3 4 7 6 4 5 10 15 16 16 16 17 17 17 12 8 10 12 9 9 9 10 12 12 14 14 13 14 16 14 14 12
2 1 4 3 4 6 1 1 3 2 3 1 2 4 9 6 6 2 8 14 15 16 17 17 17 13 10 9 12 11 8 9 10 14 15 14 14 13 14 15 15 15 14 13
5 6 3 3 3 4 6 6 3 4 4 3 4 5 9 7 5 4 10 14 15 16 16 13 12 10 10 10 11 8 8 9 14 16 17 16 14 13 16 17 16 14 12 12
3 3 1 6 1 3 7 7 3 5 9 9 7 6 8 9 7 8 13 17 18 17 17 14 6 7 8 10 11 10 9 14 17 18 18 14 12 14 15 16 14 14 12 14
5 4 3 2 2 5 7 8 10 11 13 12 12 12 12 11 10 12 15 17 18 13 12 6 4 10 9 11 12 12 15 16 17 17 15 13 13 15 15 14 13 13 13 13
2 8 5 4 8 6 4 4 8 11 11 9 7 7 6 7 10 13 15 15 14 13 10 6 7 10 11 12 13 15 16 17 18 16 16 14 13 14 15 14 14 14 14 14
2 1 2 2 5 5 6 12 11 10 8 5 2 6 7 9 14 18 18 15 12 4 1 6 10 12 13 14 14 15 16 17 17 18 16 14 14 15 16 16 15 17 20 19
Wind_Direction
189 216 195 182 209 47 154 148 147 130 141 153 176 147 124 166 189 189 188 184 183 183 179 188 210 210 205 210 205 209 227 244 257 227 179 157 152 137 110 334 323 313 300 304
197 146 91 125 136 128 168 158 132 121 139 229 169 151 130 170 192 202 198 193 187 172 159 156 162 160 159 161 174 179 171 133 135 145 143 149 163 178 216 266 278 287 287 297
267 86 133 134 127 126 104 180 163 153 143 119 183 190 177 154 182 182 197 193 180 172 150 140 139 143 145 143 143 146 147 145 146 155 158 168 175 196 258 276 290 295 301 316
74 85 135 131 121 276 151 86 136 147 190 197 206 241 176 171 179 191 180 177 164 149 142 142 140 138 139 140 142 146 149 153 155 154 168 171 225 245 243 257 261 258 280 298
110 149 140 153 66 322 109 163 137 182 228 245 185 253 121 172 201 186 179 169 161 154 153 148 147 144 142 144 149 156 157 160 170 176 186 200 215 245 261 254 256 274 297 305
103 87 13 79 73 179 143 139 116 163 254 250 260 264 271 190 236 171 176 171 166 164 161 157 155 154 157 159 164 166 167 174 182 190 210 215 233 218 241 266 286 296 301 306
154 107 112 164 128 153 219 200 232 231 220 254 89 251 261 80 168 187 181 177 176 173 170 169 169 168 173 175 177 176 174 165 187 204 213 233 199 203 277 287 295 300 300 302
182 173 179 130 296 196 154 268 236 262 233 275 193 245 89 87 290 207 186 181 177 177 178 180 180 181 185 178 180 187 182 178 197 207 226 241 219 272 299 300 300 296 291 291
179 130 120 46 137 292 141 218 36 127 79 274 257 228 222 202 186 186 183 181 182 184 187 187 189 190 189 188 193 185 178 176 212 235 251 263 279 298 298 298 293 286 298 301
155 142 170 133 145 62 283 129 186 216 237 246 194 268 282 181 180 182 186 189 188 189 190 193 196 195 190 187 190 193 173 195 222 247 253 269 282 291 302 304 295 302 307 309
162 236 152 185 212 189 153 193 195 241 281 282 295 117 81 53 183 193 196 196 194 194 196 197 196 192 185 178 172 187 198 191 229 236 257 279 274 300 302 293 305 309 314 313
109 141 183 194 123 299 261 219 204 233 182 216 310 293 159 151 197 205 204 202 203 202 198 193 187 181 178 173 172 178 176 219 237 270 265 243 292 294 287 299 307 311 314 313
170 198 187 180 180 185 225 198 202 129 138 211 197 260 168 198 222 220 215 203 201 196 189 182 180 179 178 173 170 174 195 278 266 196 237 281 283 285 293 302 310 312 313 312
172 186 239 242 276 199 201 203 201 206 207 228 239 271 192 223 222 221 215 206 200 193 189 186 183 183 180 176 176 191 280 214 187 238 280 283 285 290 295 301 307 309 309 312
225 232 214 218 138 241 257 226 204 215 234 224 267 258 271 257 238 235 221 206 200 195 192 191 188 185 182 180 187 231 178 193 245 283 293 289 287 290 286 300 305 308 310 311
165 201 184 225 224 276 266 244 233 233 246 250 263 269 283 260 253 220 206 202 202 199 196 193 190 186 186 187 187 183 185 238 286 295 296 283 275 274 290 299 306 307 308 310
171 156 161 240 356 277 276 241 227 228 228 236 251 262 215 212 223 219 213 208 207 202 196 193 190 188 184 180 173 181 222 277 293 296 287 279 279 288 296 301 305 306 306 303
141 132 77 149 226 224 339 161 283 251 255 248 260 261 265 268 240 247 225 214 206 200 195 192 188 186 183 174 184 248 263 288 297 291 281 278 281 289 296 299 306 309 300 299
109 136 118 179 221 314 280 198 231 217 293 276 254 261 231 227 261 251 219 210 205 197 192 189 184 185 172 197 220 254 275 282 287 279 278 280 285 291 294 299 304 305 296 300
80 66 229 152 221 250 48 69 166 225 274 1 245 210 198 187 256 337 202 193 188 187 181 173 172 179 171 211 260 262 269 273 273 274 286 286 289 291 293 296 304 302 291 292
118 48 208 177 238 279 291 219 161 247 18 19 221 194 181 210 264 282 179 183 185 177 170 168 170 175 190 236 254 277 270 274 275 291 295 292 290 292 292 298 302 296 287 284
180 164 182 142 202 269 159 146 230 10 337 308 288 259 236 257 260 203 164 167 163 156 155 158 172 184 226 244 277 277 276 274 292 299 299 296 291 290 293 295 296 291 285 280
221 229 215 216 223 111 192 276 308 323 298 300 292 294 273 244 216 180 165 162 160 155 162 158 188 243 263 284 290 293 283 297 304 306 304 299 292 293 299 294 290 292 282 279
212 178 231 237 146 243 262 286 292 300 291 294 282 282 282 256 210 178 158 154 150 140 143 130 202 248 278 297 300 298 302 308 309 307 304 298 293 291 301 298 287 287 275 271
31 168 199 248 285 299 83 24 348 333 327 313 302 299 275 204 174 161 146 142 139 144 127 205 269 296 296 299 302 306 309 312 312 308 307 300 299 302 298 296 288 280 269 264
198 60 216 272 5 328 323 339 334 329 332 342 34 65 89 135 138 136 129 127 101 101 4 331 293 294 299 300 305 305 310 316 314 310 300 297 298 298 295 292 290 293 285 274